Regional Weather Roundup
Issued by NWS

Home | Current Version | Previous Version | Graphics & Text | Print | Product List | Glossary On
Versions: 1 2 3 4 5 6 7 8 9 10 11 12 13 14 15 16 17 18 19 20 21 22 23 24 25 26 27 28 29 30 31 32 33 34 35 36 37 38 39 40 41 42 43 44 45 46 47 48 49 50
000
ASUS43 KMKX 290821
RWRWI

WISCONSIN REGIONAL WEATHER ROUNDUP
NATIONAL WEATHER SERVICE MILWAUKEE/SULLIVAN WI
300 AM CDT TUE JUL 29 2014

NOTE: "FAIR" INDICATES FEW OR NO CLOUDS BELOW 12,000 FEET WITH NO
SIGNIFICANT WEATHER AND/OR OBSTRUCTIONS TO VISIBILITY.

WIZ001-002-006>008-014>016-023>028-290900-
NORTHWEST WISCONSIN

CITY           SKY/WX    TMP DP  RH WIND       PRES   REMARKS
SUPERIOR ARPT  MOCLDY    56  55  94 NW7       30.08S
ASHLAND        CLOUDY    55  54  96 S3        30.07F
HAYWARD        CLEAR     53  51  93 CALM      30.08F
SIREN          CLEAR     56  53  90 CALM      30.10F
RICE LAKE      NOT AVBL
LADYSMITH      CLEAR     58  55  87 NW6       30.08F
EAU CLAIRE     CLEAR     58  54  86 W3        30.07F
MENOMONIE      SUNNY     60  55  84 W6        30.08F
NEW RICHMOND   CLEAR     57  55  91 NW3       30.11F
OSCEOLA        CLEAR     55  55 100 CALM      30.14S
$$

WIZ003>005-009-010-017-018-290900-
NORTH CENTRAL WISCONSIN

CITY           SKY/WX    TMP DP  RH WIND       PRES   REMARKS
WOODRUFF       MOCLDY    57  54  90 N5        30.04F
RHINELANDER    PTCLDY    51  50  96 CALM      30.04F FOG
EAGLE RIVER    MOCLDY    51  51 100 CALM      30.04S FOG
LAND O LAKES   PTCLDY    54  52  94 CALM      30.05S
PHILLIPS       CLEAR     54  54 100 CALM      30.05F
TOMAHAWK       PTCLDY    51  50  95 W3        30.05S FOG
MEDFORD        CLEAR     53  52  98 CALM      30.06F FOG
MERRILL        PTCLDY    54  53  99 NW3       30.04F
$$

WIZ029-030-035-036-043>047-290900-
CENTRAL WISCONSIN

CITY           SKY/WX    TMP DP  RH WIND       PRES   REMARKS
WAUSAU         CLEAR     57  54  89 NW8       30.03S
MOSINEE        CLEAR     54  54 100 NW6       30.05S
MARSHFIELD     CLEAR     58  53  84 NW8       30.05F
STEVENS POINT  CLEAR     56  53  89 W3        30.04F
WAUPACA        CLEAR     63  54  73 NW6       30.02S
WAUTOMA        MOCLDY    61  55  80 W6        30.04F
WISC RAPIDS    PTCLDY    58  54  86 CALM      30.06F
CAMP DOUGLAS   CLEAR     54  54 100 W7        30.06F
$$

WIZ011>013-019>022-031-037>040-048>050-290900-
NORTHEAST WISCONSIN

CITY           SKY/WX    TMP DP  RH WIND       PRES   REMARKS
ANTIGO         CLEAR     54  53  97 NW7       30.04S
STURGEON BAY   CLEAR     61  54  77 NW6       29.98F
GREEN BAY      CLEAR     58  55  90 W8        29.99F
MANITOWOC      MOCLDY    62  55  77 NW7       29.99F
APPLETON       CLEAR     55  52  88 W8        30.01F
CLINTONVILLE   CLEAR     59  54  82 NW5       30.01S
OSHKOSH        PTCLDY    60  55  83 W6        30.01F
$$

WIZ032>034-041-042-053>061-290900-
SOUTHWEST WISCONSIN

CITY           SKY/WX    TMP DP  RH WIND       PRES   REMARKS
LA CROSSE      CLEAR     59  55  87 SE3       30.08F
SPARTA         CLEAR     49  48  95 NE7       30.09S
VIROQUA        FAIR      55  55  99 W6        30.09F
BOSCOBEL       CLEAR     54  52  93 SW5       30.10F
PRAIRIE DU CHI CLEAR     54  51  90 CALM      30.10F
PLATTEVILLE    FAIR      53  51  93 W5        30.10F
$$

WIZ056-057-062-063-064-067-068-290900-
SOUTH CENTRAL WISCONSIN

CITY           SKY/WX    TMP DP  RH WIND       PRES   REMARKS
BARABOO/DELLS  PTCLDY    58  51  76 CALM      30.06F
LONE ROCK      CLEAR     59  54  83 W5        30.07F
WATERTOWN      PTCLDY    57  54  88 CALM      30.03F
MADISON        PTCLDY    61  52  72 NW5       30.05F
MIDDLETON      PTSUNNY   60  52  76 W8        30.06F
MONROE         PTCLDY    59  52  77 W10       30.07F
JANESVILLE     CLEAR     55  50  82 NW3       30.05S
$$

WIZ051-052-058>065-066-070>072-290900-
SOUTHEAST WISCONSIN

CITY           SKY/WX    TMP DP  RH WIND       PRES   REMARKS
MILWAUKEE      MOCLDY    62  54  74 W6        30.02F
WAUKESHA       PTCLDY    57  52  82 W6        30.03F
MILWAUKEE/TIMM CLOUDY    59  52  77 W5        30.03S
RACINE         PTCLDY    58  53  84 W5        30.04F
BURLINGTON     PTCLDY    56  53  88 NW6       30.03F
KENOSHA        MOCLDY    56  53  90 W5        30.03F
FOND DU LAC    PTCLDY    61  54  77 W7        30.02F
SHEBOYGAN      CLOUDY    61  56  83 W3        30.00F
WEST BEND      CLOUDY    59  54  82 W6        30.02F
JUNEAU         CLOUDY    58  53  83 SW3       30.04F
$$

LSZ147-162-290900-
LAKE SUPERIOR

STATION/POSITION TIME  TEMP    WIND        PRES    WAVE
                       AIR SEA DIR/SP/G            HT/PER
                 (UTC) (F)     (DEG/KT/KT) (MB)    (FT/S)
W MID LAKE BUOY  0750   51 43  260/ 12/ 12 1016.0F   1
PORT WING        0700   60     160/  1/  2 1018.3
SAXON HARBOR     0700          190/  4/  6 1017.6F
$$

LMZ867-665-643>646-290900-
LAKE MICHIGAN

STATION/POSITION TIME  TEMP    WIND        PRES    WAVE
                       AIR SEA DIR/SP/G            HT/PER
                 (UTC) (F)     (DEG/KT/KT) (MB)    (FT/S)
N MID LAKE BUOY  0750   57 54  300/  8/  8 1013.7F   1
NORTHPORT PIER   0700   63     300/  8/ 12 1014.9S
SISTER BAY       0710   64     340/ 11/ 13   N/A
KEWAUNEE LAKESHO 0700   61     300/  4/  5 1016.0F
SHEBOYGAN LAKESH 0800   65     310/ 10/ 12 1015.9F
PORT WASHINGTON  0700   62     280/  3/  5 1016.9F
ATWATER BUOY     0800   63     250/ 12     1017.0F
MILWAUKEE LAKESH 0800   63     280/  8/ 10   N/A
S MID LAKE BUOY  0750   60 60  240/ 10/ 10 1016.5F   1/ 6
KENOSHA   LAKESH 0800   60     260/  3/  5 1016.6F
$$

TC  - TEMPERATURE IN CELSIUS
VSB - VISIBILITY IN STATUTE MILES
WCI - WIND CHILL INDEX
HX  - HEAT INDEX




USA.gov is the U.S. government's official web portal to all federal, state and local government web resources and services.